Regional Weather Roundup
Issued by NWS

Home | Current Version | Previous Version | Graphics & Text | Print | Product List | Glossary On
Versions: 1 2 3 4 5 6 7 8 9 10 11 12 13 14 15 16 17 18 19 20 21 22 23 24 25 26 27 28 29 30 31 32 33 34 35 36 37 38 39 40 41 42 43 44 45 46 47 48 49 50
000
ASUS43 KIND 200109
RWRIN

WEATHER ROUNDUP FOR INDIANA
NATIONAL WEATHER SERVICE INDIANAPOLIS IN
800 PM EST SUN NOV 19 2017

NOTE: "FAIR" INDICATES FEW OR NO CLOUDS BELOW 12,000 FEET WITH NO
SIGNIFICANT WEATHER AND/OR OBSTRUCTIONS TO VISIBILITY.

* - STATION DOES NOT REPORT WEATHER SUCH AS PRECIPITATION OR FOG.

+ - STATION NOT QUALITY CONTROLLED BY THE NATIONAL WEATHER SERVICE.
    USE DATA WITH CAUTION...ESPECIALLY DEWPOINT AND RELATIVE
    HUMIDITY OBSERVATIONS.

INZ001>003-010>013-019-020-200200-
NORTHWEST INDIANA

CITY           SKY/WX    TMP DP  RH WIND       PRES   REMARKS
GARY /AIRPORT/ PTCLDY    32  19  59 W14       30.09R WCI  22
KNOX *+        CLEAR     30  23  74 W12G18    30.09R WCI  21
LA PORTE +     CLEAR     30  20  66 W10       30.07S WCI  21
MICHIGAN CITY+ CLEAR     32  19  59 W8        30.07R WCI  25
MONTICELLO +   CLEAR     29  21  71 W7        30.11R WCI  22
RENSSELAER +   CLEAR     30  21  69 W9        30.11R WCI  22
VALPARAISO     CLEAR     31  20  63 W12       30.08R WCI  22

$$

LMZ046-743>745-200200-
SOUTHERN LAKE MICHIGAN

STATION/POSITION TIME  TEMP    WIND        PRES    WAVE
                       AIR SEA DIR/SP/G            HT
                 (UTC) (F)     (DEG/KT/KT) (MB)    (FT)
BURNS HARBOR     0040   35     260/ 18/ 23 1018.6R
MICHIGAN CITY    0040   35     250/ 24/ 27   N/A

$$

INZ004-005-014>016-021>024-200200-
NORTH CENTRAL INDIANA

CITY           SKY/WX    TMP DP  RH WIND       PRES   REMARKS
GOSHEN         PTCLDY    29  19  66 SW12      30.04S WCI  19
LOGANSPORT +   CLEAR     28  23  80 W12       30.11R WCI  18
PERU/GRISSOM   CLEAR     29  25  85 W12       30.08S WCI  19
ROCHESTER +    CLEAR     32  27  80 W9        30.08R WCI  24
SOUTH BEND     CLEAR     28  20  71 SW8       30.06R WCI  20
WARSAW +       CLEAR     30  21  69 W8        30.06R WCI  23

$$

INZ006>009-017-018-025>027-200200-
NORTHEAST INDIANA

CITY           SKY/WX    TMP DP  RH WIND       PRES   REMARKS
AUBURN +       CLEAR     30  23  74 W6        30.04F WCI  24
FORT WAYNE     PTCLDY    31  25  78 W12       30.06S WCI  22
HUNTINGTON +   CLEAR     29  23  78 W8        30.07S WCI  21
KENDALLVILLE + PTCLDY    30  23  74 W10       30.03S WCI  21

$$

INZ028-029-035-036-043>045-051>053-200200-
WEST CENTRAL INDIANA

CITY           SKY/WX    TMP DP  RH WIND       PRES   REMARKS
CRAWFORDSVL +  CLEAR     27  21  80 SW8       30.10S WCI  18
GREENCASTLE +  CLEAR     30  21  69 W3        30.14S
LAFAYETTE      CLEAR     29  23  78 W9        30.12R WCI  20
TERRE HAUTE    CLEAR     30  22  72 W5        30.17R WCI  25

$$

INZ030>032-037>040-046>048-054>057-064-065-200200-
CENTRAL INDIANA

CITY           SKY/WX    TMP DP  RH WIND       PRES   REMARKS
CP ATTERBURY + CLEAR     30  23  74 W5        30.16R WCI  25
COLUMBUS       CLEAR     30  21  69 CALM      30.15F
FISHERS *+     CLEAR     28  27  93 W5        30.12  WCI  23
FRANKFORT +    CLEAR     32  26  80 W7        30.13R WCI  25
GREENWOOD *+   CLEAR     32  26  78 W5        30.14R WCI  27
INDIANAPOLIS   PTCLDY    29  22  75 W8        30.13S WCI  21
-EAGLE CREEK   CLEAR     31  21  66 W5        30.11F WCI  26
KOKOMO +       CLEAR     30  25  81 W15       30.10S WCI  19
MARION +       CLEAR     30  26  83 W12       30.10S WCI  20
MT COMFORT *+  CLEAR     27  27 100 W8        30.12S WCI  18
SHELBYVILLE    CLEAR     28  22  78 SW7       30.13S WCI  21
ZIONSVILLE +   CLEAR     28  23  82 W6        30.11S WCI  21

$$

INZ033-034-041-042-049-050-058-059-200200-
EAST CENTRAL INDIANA

CITY           SKY/WX    TMP DP  RH WIND       PRES   REMARKS
MUNCIE         PTCLDY    30  23  75 W8        30.09S WCI  22
RICHMOND +     CLEAR     28  23  80 W8        30.11S WCI  20

$$

INZ060-061-067>069-081>083-085>088-200200-
SOUTHWEST INDIANA

CITY           SKY/WX    TMP DP  RH WIND       PRES   REMARKS
EVANSVILLE     CLEAR     33  22  63 CALM      30.22R
HUNTINGBURG +  CLEAR     31  25  78 W5        30.21R WCI  26
WASHINGTON +   CLEAR     31  21  65 W5        30.19R WCI  27

$$

INZ062-063-066-070>080-084-089>092-200200-
SOUTH CENTRAL AND SOUTHEAST INDIANA

CITY           SKY/WX    TMP DP  RH WIND       PRES   REMARKS
BEDFORD +      CLEAR     30  21  69 W5        30.16  WCI  25
BLOOMINGTON    CLEAR     31  21  66 W5        30.15S WCI  26
MADISON *+     CLEAR     32  25  74 CALM      30.16F
NORTH VERNON + CLEAR     28  23  80 SW3       30.15F
SEYMOUR +      CLEAR     30  23  74 SW6       30.16F WCI  24

$$





USA.gov is the U.S. government's official web portal to all federal, state and local government web resources and services.